Weather History for KART - March, 2013

Change the Weather History Date:

Tuesday, March 19, 2013

  Actual Average Record
Temperature  
Mean Temperature 34 °F 32 °F  
Max Temperature 39 °F 42 °F 73 °F (2012)
Min Temperature 29 °F 22 °F -19 °F (1993)
Degree Days  
Heating Degree Days 31 33  
Month to date heating degree days 654 702  
Since 1 July heating degree days 5504 6143  
Cooling Degree Days 0 0  
Month to date cooling degree days 0 0  
Year to date cooling degree days 0 0  
Moisture  
Dew Point 28 °F    
Average Humidity 81    
Maximum Humidity 92    
Minimum Humidity 70    
Precipitation  
Precipitation 0.10 in 0.07 in 0.75 in (1998)
Month to date precipitation 0.66 1.40  
Year to date precipitation 4.96 6.28  
Sea Level Pressure  
Sea Level Pressure 29.75 in    
Wind  
Wind Speed 10 mph (SSW)    
Max Wind Speed 22 mph    
Max Gust Speed 31 mph    
Visibility 5 miles    
Events Fog , Rain , Snow    
T = Trace of Precipitation, MM = Missing Value Source: NWS Daily Summary

Daily Weather History Graph

Daily Weather History Graph

Search for Another Location

Airport or City:

Trip Planner

Search our weather history database for the weather conditions in past years. The results will help you decide how hot, cold, wet, or windy it might be!

Date:

Astronomy

Mar. 19, 2013 Rise Set
Actual Time 7:08 AM EDT 7:15 PM EDT
Civil Twilight 6:39 AM EDT 7:44 PM EDT
Nautical Twilight 6:06 AM EDT 8:18 PM EDT
Astronomical Twilight 5:31 AM EDT 8:52 PM EDT
Moon 11:45 AM EDT (3/19) 2:12 AM EDT (3/19)
Length of Visible Light 13h 04m
Length of Day
12h 06m
Waxing Crescent, 49% of the Moon is Illuminated
Mar 19
Waxing Crescent
Mar 19
First Quarter
Mar 27
Full
Apr 3
Last Quarter
Apr 10
New

Hourly Weather History & Observations

Time (EDT) Temp. Windchill Dew Point Humidity Pressure Visibility Wind Dir Wind Speed Gust Speed Precip Events Conditions
12:06 AM 35.6 °F 30.7 °F 28.4 °F 75% 29.85 in 2.5 mi East 5.8 mph - 0.00 in Snow Light Snow
12:16 AM 33.8 °F 26.4 °F 28.4 °F 81% 29.85 in 1.0 mi East 9.2 mph - 0.01 in Snow Light Snow
12:33 AM 33.8 °F 27.7 °F 30.2 °F 87% 29.85 in 1.0 mi Variable 6.9 mph 16.1 mph 0.02 in Snow Light Snow
12:56 AM 32.0 °F 28.7 °F 30.0 °F 92% 29.84 in 1.2 mi ESE 3.5 mph - 0.04 in Snow Light Snow
1:16 AM 33.8 °F 28.6 °F 28.4 °F 81% 29.81 in 2.0 mi Variable 5.8 mph - 0.02 in Snow Light Snow
1:40 AM 33.8 °F 29.6 °F 28.4 °F 81% 29.80 in 4.0 mi ESE 4.6 mph - 0.02 in Snow Light Snow
1:56 AM 33.1 °F 30.0 °F 28.9 °F 85% 29.81 in 5.0 mi East 3.5 mph - 0.02 in Snow Light Snow
2:56 AM 36.0 °F 30.3 °F 28.0 °F 73% 29.77 in 9.0 mi SE 6.9 mph - 0.01 in Snow Light Snow
3:37 AM 35.6 °F 29.9 °F 28.4 °F 75% 29.73 in 8.0 mi SSE 6.9 mph - 0.00 in Snow Light Snow
4:56 AM 36.0 °F 29.6 °F 28.0 °F 73% 29.73 in 10.0 mi SSE 8.1 mph - N/A   Overcast
5:19 AM 35.6 °F 31.7 °F 28.4 °F 75% 29.72 in 2.0 mi South 4.6 mph - 0.00 in Snow Light Snow
5:30 AM 35.6 °F 31.7 °F 28.4 °F 75% 29.72 in 2.5 mi Variable 4.6 mph - 0.00 in Snow Light Snow
5:37 AM 35.6 °F 31.7 °F 28.4 °F 75% 29.72 in 3.0 mi SSW 4.6 mph - 0.01 in Snow Light Snow
5:47 AM 33.8 °F 29.6 °F 28.4 °F 81% 29.72 in 1.8 mi Variable 4.6 mph - 0.01 in Snow Light Snow
5:56 AM 34.0 °F 31.0 °F 30.0 °F 85% 29.73 in 1.5 mi SSE 3.5 mph - 0.01 in Snow Light Snow
6:17 AM 33.8 °F 30.8 °F 30.2 °F 87% 29.72 in 3.0 mi South 3.5 mph - 0.00 in Snow Light Snow
6:56 AM 34.0 °F 29.8 °F 30.0 °F 85% 29.74 in 10.0 mi SSE 4.6 mph - 0.00 in Snow Light Snow
7:15 AM 33.8 °F 28.6 °F 30.2 °F 87% 29.72 in 1.8 mi SSE 5.8 mph - 0.01 in Snow Light Snow
7:28 AM 33.8 °F 26.4 °F 30.2 °F 87% 29.72 in 2.0 mi SSE 9.2 mph 17.3 mph 0.02 in Snow Light Snow
7:35 AM 35.6 °F 29.2 °F 28.4 °F 75% 29.72 in 3.0 mi SSE 8.1 mph 19.6 mph 0.02 in Snow Light Snow
7:43 AM 33.8 °F 27.0 °F 28.4 °F 81% 29.72 in 2.0 mi South 8.1 mph - 0.02 in Snow Light Snow
7:53 AM 33.8 °F 25.8 °F 30.2 °F 87% 29.73 in 3.0 mi SSE 10.4 mph 17.3 mph 0.02 in Snow Light Snow
7:56 AM 34.0 °F 25.5 °F 30.0 °F 85% 29.74 in 2.5 mi SSE 11.5 mph 17.3 mph 0.02 in Snow Light Snow
8:10 AM 33.8 °F 25.3 °F 30.2 °F 87% 29.73 in 5.0 mi SSE 11.5 mph - 0.00 in Snow Light Snow
8:25 AM 33.8 °F 26.4 °F 30.2 °F 87% 29.73 in 1.8 mi SSE 9.2 mph 17.3 mph 0.00 in Snow Light Snow
8:56 AM 34.0 °F 26.0 °F 30.0 °F 85% 29.74 in 0.8 mi SSE 10.4 mph 18.4 mph 0.00 in Snow Light Snow
9:35 AM 35.6 °F 28.6 °F 28.4 °F 75% 29.73 in 10.0 mi South 9.2 mph 17.3 mph 0.00 in   Overcast
9:48 AM 35.6 °F 28.0 °F 28.4 °F 75% 29.73 in 10.0 mi South 10.4 mph 18.4 mph 0.00 in   Overcast
9:56 AM 35.1 °F 27.4 °F 28.9 °F 78% 29.75 in 10.0 mi South 10.4 mph 20.7 mph 0.00 in   Overcast
10:56 AM 35.1 °F 27.4 °F 28.9 °F 78% 29.75 in 10.0 mi SSE 10.4 mph - 0.00 in   Overcast
11:56 AM 37.0 °F 30.4 °F 28.0 °F 70% 29.73 in 10.0 mi SSE 9.2 mph - N/A   Overcast
12:56 PM 37.9 °F 32.1 °F 28.9 °F 70% 29.71 in 10.0 mi SSE 8.1 mph - N/A   Overcast
1:56 PM 37.9 °F 31.5 °F 28.9 °F 70% 29.69 in 10.0 mi SSE 9.2 mph - N/A   Overcast
2:56 PM 39.0 °F 33.4 °F 30.0 °F 70% 29.68 in 10.0 mi South 8.1 mph - N/A   Overcast
3:15 PM 37.4 °F 31.4 °F 30.2 °F 75% 29.67 in 10.0 mi South 8.1 mph - 0.00 in Rain Light Rain
3:40 PM 35.6 °F 24.5 °F 30.2 °F 81% 29.69 in 0.8 mi WSW 20.7 mph 29.9 mph 0.01 in Snow Light Snow
3:56 PM 32.0 °F 20.8 °F 30.0 °F 92% 29.72 in 0.2 mi WSW 17.3 mph 26.5 mph 0.04 in Fog , Snow Snow
4:06 PM 33.8 °F 23.2 °F 30.2 °F 87% 29.71 in 1.0 mi WSW 17.3 mph 25.3 mph 0.00 in Snow Light Snow
4:13 PM 33.8 °F 24.3 °F 28.4 °F 81% 29.71 in 3.0 mi WSW 13.8 mph 24.2 mph 0.00 in Snow Light Snow
4:17 PM 33.8 °F 23.5 °F 28.4 °F 81% 29.71 in 2.5 mi WSW 16.1 mph - 0.00 in Snow Light Snow
4:32 PM 32.0 °F 22.5 °F 28.4 °F 87% 29.72 in 1.2 mi WSW 12.7 mph 21.9 mph 0.00 in Snow Light Snow
4:42 PM 32.0 °F 21.6 °F 28.4 °F 87% 29.72 in 1.2 mi WSW 15.0 mph 20.7 mph 0.00 in Snow Light Snow
4:56 PM 32.0 °F 25.6 °F 30.0 °F 92% 29.73 in 2.0 mi WSW 6.9 mph 17.3 mph 0.00 in Snow Light Snow
5:03 PM 32.0 °F 24.2 °F 30.2 °F 93% 29.72 in 5.0 mi WSW 9.2 mph - 0.00 in Snow Light Snow
5:56 PM 33.1 °F 24.4 °F 24.1 °F 70% 29.75 in 10.0 mi WSW 11.5 mph 21.9 mph 0.00 in   Overcast
6:56 PM 32.0 °F 20.5 °F 25.0 °F 75% 29.77 in 10.0 mi WSW 18.4 mph 27.6 mph 0.00 in   Overcast
7:06 PM 30.2 °F 17.8 °F 24.8 °F 80% 29.76 in 9.0 mi West 19.6 mph 29.9 mph 0.00 in   Overcast
7:50 PM 30.2 °F 19.3 °F 24.8 °F 80% 29.78 in 1.8 mi WSW 15.0 mph 26.5 mph 0.00 in Snow Light Snow
7:51 PM 30.2 °F 19.3 °F 26.6 °F 86% 29.78 in 1.5 mi WSW 15.0 mph 26.5 mph 0.00 in Snow Light Snow
7:56 PM 30.0 °F 19.5 °F 26.1 °F 85% 29.79 in 1.8 mi WSW 13.8 mph 24.2 mph 0.00 in Snow Light Snow
8:00 PM 30.2 °F 17.4 °F 24.8 °F 80% 29.78 in 3.0 mi WSW 20.7 mph 26.5 mph 0.00 in Snow Light Snow
8:56 PM 30.9 °F 21.7 °F 23.0 °F 72% 29.80 in 10.0 mi WSW 11.5 mph 21.9 mph 0.00 in   Overcast
9:56 PM 28.9 °F 19.8 °F 23.0 °F 78% 29.80 in 10.0 mi West 10.4 mph - N/A   Overcast
10:16 PM 28.4 °F 19.1 °F 24.8 °F 86% 29.78 in 9.0 mi West 10.4 mph - N/A   Overcast
10:27 PM 28.4 °F 18.0 °F 23.0 °F 80% 29.78 in 10.0 mi WSW 12.7 mph 20.7 mph N/A   Overcast
10:56 PM 28.9 °F 19.2 °F 21.0 °F 72% 29.80 in 10.0 mi WSW 11.5 mph 20.7 mph N/A   Overcast
11:56 PM 28.9 °F 19.8 °F 21.0 °F 72% 29.80 in 10.0 mi West 10.4 mph - N/A   Overcast